Tracking 19490 objects as of 24-Jan-2019
HD Live streaming from Space Station
objects crossing your sky now

FLOCK 3R 2

Track FLOCK 3R 2 now!
10-day predictions
FLOCK 3R 2 is classified as:


NORAD ID: 43748
Int'l Code: 2018-096AF
Perigee: 476.6 km
Apogee: 508.3 km
Inclination: 97.5 °
Period: 94.3 minutes
Semi major axis: 6863 km
RCS: Unknown
Launch date: November 29, 2018
Source: United States (US)
Launch site: SRIHARIKOTA (SRI)
aabbcc
Your satellite tracking list
Your tracking list is empty




NASA's NSSDC Master Catalog

Two Line Element Set (TLE):
1 43748U 18096AF  19023.69594356  .00000788  00000-0  32545-4 0  9998
2 43748  97.4788  93.7971 0023147 129.9754 351.4375 15.26827338  8473
Source of the keplerian elements: AFSPC